COSMOS 1823 DEB, 39815

Orbit data source: Space-Track

COSMOS 1823 DEB, 39815 is space debris in LEO originally from a launch on Fri, 20 Feb 1987 UTC launched from the Plesetsk Missile And Space Complex (PKMTR). Debris objects in space refer to the collection of defunct objects orbiting the Earth. Examples of debris include non-operational satellites, rocket bodies, and fragments generated from explosions, collisions, or faulty payload assembly.

Loading next visibility...
Identifier
39815, 1987-020EP
Orbit
LEO
Country
Flag of CISCIS
Related business
Manufacturer
Unknown
Mission
Spacecraft
Bus & Motor
Unknown
Mass
Unknown
Launch date (UTC)
1987-02-20 (39 years ago)
Launch vehicle
Unknown
Launch site
Plesetsk Missile And Space Complex (PKMTR)
Object type
Payload
Rocket body
Debris
Shape & HBR
Unknown shape, 0.1 m
Radar Cross Section
Medium (>0.1 m² and <1 m²)

Expand to show TLE details & history
Last TLE update: 6 days ago

TLE from 6 days ago
0 COSMOS 1823 DEB
1 39815U 87020EP  26167.31622247  .00000043  00000-0  44237-3 0  9992
2 39815  73.6038  36.1136 0026384 236.8954 122.9557 12.42106565704942
Epoch: 2026-06-16T07:35Z
TLE epoch observation values (Epoch: 2026-06-16T07:35:21.621Z)
Latitude
-0.00004°
Longitude
17.68349°
Altitude
1,511.378 km
Speed
7.104 km/s
True Right ascension
02h 24m 27s
True Declination
0° 00' 00"
Sunlit
Object was in daylight at epoch
Visualization orbit readout
Latitude
Unknown
Longitude
Unknown
Altitude
Unknown
Speed
Unknown
Apparent Right ascension
Unknown
Apparent Declination
Unknown
Sunlit
N/A
Visualization observer readout
Local Sidereal Time
03:29:34
Azimuth
Unknown
Elevation
Unknown
Doppler factor
Unknown
Orbital elements
Apogee altitude
1,516.337 km
Perigee altitude
1,474.789 km
Semi-major axis
7,873.7 km
Eccentricity
0.00264
Inclination
73.6038°
RAAN
36.1136°
Arg. of periapsis
236.8954°
True anomaly
123.20893°
Mean anomaly
122.9557°
Eccentric anomaly
123.08236°
Mean motion
3.10652 °/min
Orbital period
115.89 mins
BSTAR
0.00044237
Loading maneuver chart data...
Computing Atmospheric mass density...

Documentation

Showing up to 5 results
|